| time (UTC) | temp F | wind direction | speed MPH | gust MPH | rain 1hr in | rain 24hr in | rain mn in | humidity % | barometer mb |
| 20260906010040 | 74 | 0 | 0.0 | 0.0 | 0.00 | 0.00 | 0.00 | 50 | 1021.9 |
| 20260906004545 | 74 | 0 | 0.0 | 3.0 | 0.00 | 0.00 | 0.00 | 49 | 1021.9 |
| 20260906003046 | 74 | 281 | 1.0 | 4.0 | 0.00 | 0.00 | 0.00 | 50 | 1021.9 |
| 20260906001541 | 74 | 280 | 2.0 | 5.0 | 0.00 | 0.00 | 0.00 | 49 | 1021.9 |
| 20260906000046 | 75 | 284 | 2.0 | 4.0 | 0.00 | 0.00 | 0.00 | 49 | 1022.0 |
| 20260905234545 | 75 | 0 | 0.0 | 0.0 | 0.00 | 0.00 | 0.00 | 49 | 1022.0 |
| 20260905233044 | 76 | 0 | 0.0 | 0.0 | 0.00 | 0.00 | 0.00 | 49 | 1022.1 |
| 20260905231546 | 77 | 0 | 0.0 | 0.0 | 0.00 | 0.00 | 0.00 | 49 | 1022.1 |
| 20260905230052 | 77 | 0 | 0.0 | 0.0 | 0.00 | 0.00 | 0.00 | 49 | 1022.1 |
| 20260905224546 | 78 | 0 | 0.0 | 0.0 | 0.00 | 0.00 | 0.00 | 48 | 1022.4 |
| 20260905223043 | 78 | 0 | 0.0 | 0.0 | 0.00 | 0.00 | 0.00 | 48 | 1022.4 |
| 20260905221548 | 79 | 0 | 0.0 | 0.0 | 0.00 | 0.00 | 0.00 | 48 | 1022.1 |
| 20260905220044 | 79 | 0 | 0.0 | 0.0 | 0.00 | 0.00 | 0.00 | 47 | 1022.3 |
| 20260905214541 | 80 | 0 | 0.0 | 3.0 | 0.00 | 0.00 | 0.00 | 47 | 1022.3 |
| 20260905213045 | 80 | 0 | 1.0 | 3.0 | 0.00 | 0.00 | 0.00 | 47 | 1022.3 |
| 20260905211547 | 81 | 0 | 0.0 | 0.0 | 0.00 | 0.00 | 0.00 | 47 | 1022.3 |
| 20260905210103 | 81 | 0 | 0.0 | 0.0 | 0.00 | 0.00 | 0.00 | 46 | 1022.4 |
| 20260905204539 | 81 | 0 | 0.0 | 0.0 | 0.00 | 0.00 | 0.00 | 46 | 1022.5 |
| 20260905203046 | 83 | 0 | 0.0 | 0.0 | 0.00 | 0.00 | 0.00 | 50 | 1022.4 |
| 20260905201550 | 83 | 0 | 0.0 | 0.0 | 0.00 | 0.00 | 0.00 | 49 | 1022.4 |
| 20260905200056 | 83 | 0 | 0.0 | 0.0 | 0.00 | 0.00 | 0.00 | 47 | 1022.3 |
| 20260905194546 | 84 | 0 | 0.0 | 0.0 | 0.00 | 0.00 | 0.00 | 43 | 1022.2 |
| 20260905193044 | 84 | 0 | 0.0 | 4.0 | 0.00 | 0.00 | 0.00 | 41 | 1022.0 |
| 20260905191543 | 84 | 146 | 1.0 | 5.0 | 0.00 | 0.00 | 0.00 | 41 | 1021.9 |
| 20260905190041 | 84 | 101 | 1.0 | 6.0 | 0.00 | 0.00 | 0.00 | 42 | 1021.7 |
| 20260905184543 | 85 | 0 | 1.0 | 5.0 | 0.00 | 0.00 | 0.00 | 41 | 1021.7 |
| 20260905183048 | 86 | 96 | 3.0 | 5.0 | 0.00 | 0.00 | 0.00 | 39 | 1021.6 |
| 20260905181544 | 87 | 87 | 2.0 | 7.0 | 0.00 | 0.00 | 0.00 | 36 | 1021.5 |
| 20260905180045 | 88 | 91 | 2.0 | 8.0 | 0.00 | 0.00 | 0.00 | 29 | 1021.3 |
| 20260905174541 | 89 | 137 | 4.0 | 9.0 | 0.00 | 0.00 | 0.00 | 26 | 1021.2 |
| 20260905173045 | 90 | 121 | 6.0 | 10.0 | 0.00 | 0.00 | 0.00 | 21 | 1021.3 |
| 20260905171558 | 90 | 132 | 6.0 | 11.0 | 0.00 | 0.00 | 0.00 | 19 | 1021.1 |
| 20260905170047 | 91 | 76 | 6.0 | 10.0 | 0.00 | 0.00 | 0.00 | 22 | 1021.1 |
| 20260905164547 | 92 | 117 | 5.0 | 10.0 | 0.00 | 0.00 | 0.00 | 21 | 1021.0 |
| 20260905163045 | 93 | 74 | 4.0 | 10.0 | 0.00 | 0.00 | 0.00 | 20 | 1020.9 |
| 20260905161545 | 93 | 123 | 6.0 | 12.0 | 0.00 | 0.00 | 0.00 | 22 | 1020.8 |
| 20260905160048 | 94 | 134 | 4.0 | 11.0 | 0.00 | 0.00 | 0.00 | 21 | 1020.8 |
| 20260905154551 | 94 | 143 | 7.0 | 11.0 | 0.00 | 0.00 | 0.00 | 22 | 1020.7 |
| 20260905153041 | 94 | 134 | 4.0 | 12.0 | 0.00 | 0.00 | 0.00 | 23 | 1020.7 |
| 20260905151545 | 95 | 123 | 6.0 | 15.0 | 0.00 | 0.00 | 0.00 | 22 | 1020.6 |
| 20260905150042 | 94 | 134 | 6.0 | 12.0 | 0.00 | 0.00 | 0.00 | 23 | 1020.6 |
| 20260905144550 | 95 | 126 | 6.0 | 11.0 | 0.00 | 0.00 | 0.00 | 23 | 1020.8 |
| 20260905143045 | 94 | 132 | 6.0 | 13.0 | 0.00 | 0.00 | 0.00 | 21 | 1020.9 |
| 20260905141544 | 95 | 109 | 4.0 | 12.0 | 0.00 | 0.00 | 0.00 | 24 | 1021.1 |
| 20260905140043 | 94 | 117 | 7.0 | 13.0 | 0.00 | 0.00 | 0.00 | 24 | 1021.3 |
| 20260905134549 | 95 | 140 | 6.0 | 14.0 | 0.00 | 0.00 | 0.00 | 26 | 1021.3 |
| 20260905133037 | 95 | 140 | 7.0 | 17.0 | 0.00 | 0.00 | 0.00 | 24 | 1021.5 |
| 20260905131545 | 95 | 94 | 5.0 | 15.0 | 0.00 | 0.00 | 0.00 | 25 | 1021.5 |
| 20260905130042 | 96 | 135 | 8.0 | 14.0 | 0.00 | 0.00 | 0.00 | 26 | 1021.5 |
| 20260905124550 | 96 | 82 | 4.0 | 11.0 | 0.00 | 0.00 | 0.00 | 26 | 1021.7 |
| 20260905123045 | 95 | 32 | 3.0 | 10.0 | 0.00 | 0.00 | 0.00 | 25 | 1021.8 |
| 20260905121543 | 95 | 54 | 5.0 | 8.0 | 0.00 | 0.00 | 0.00 | 24 | 1021.9 |
| 20260905120045 | 95 | 140 | 4.0 | 9.0 | 0.00 | 0.00 | 0.00 | 23 | 1022.1 |
| 20260905114550 | 94 | 133 | 4.0 | 10.0 | 0.00 | 0.00 | 0.00 | 21 | 1022.1 |
| 20260905113044 | 93 | 131 | 3.0 | 9.0 | 0.00 | 0.00 | 0.00 | 23 | 1022.2 |
| 20260905111542 | 94 | 118 | 3.0 | 9.0 | 0.00 | 0.00 | 0.00 | 26 | 1022.2 |
| 20260905110040 | 92 | 91 | 2.0 | 4.0 | 0.00 | 0.00 | 0.00 | 30 | 1022.3 |
| 20260905104549 | 92 | 0 | 3.0 | 8.0 | 0.00 | 0.00 | 0.00 | 34 | 1022.4 |
| 20260905103046 | 91 | 0 | 1.0 | 7.0 | 0.00 | 0.00 | 0.00 | 37 | 1022.5 |
| 20260905101542 | 90 | 119 | 1.0 | 5.0 | 0.00 | 0.00 | 0.00 | 42 | 1022.6 |
| 20260905100042 | 88 | 100 | 1.0 | 5.0 | 0.00 | 0.00 | 0.00 | 45 | 1022.6 |
| 20260905094557 | 88 | 0 | 1.0 | 4.0 | 0.00 | 0.00 | 0.00 | 42 | 1022.6 |
| 20260905093045 | 87 | 0 | 1.0 | 4.0 | 0.00 | 0.00 | 0.00 | 43 | 1022.4 |
| 20260905091542 | 86 | 325 | 0.0 | 4.0 | 0.00 | 0.00 | 0.00 | 47 | 1022.4 |
| 20260905090040 | 85 | 0 | 1.0 | 4.0 | 0.00 | 0.00 | 0.00 | 50 | 1022.3 |
| 20260905084543 | 83 | 314 | 1.0 | 6.0 | 0.00 | 0.00 | 0.00 | 52 | 1022.3 |
| 20260905083043 | 82 | 290 | 1.0 | 7.0 | 0.00 | 0.00 | 0.00 | 56 | 1022.3 |
| 20260905081538 | 80 | 286 | 3.0 | 7.0 | 0.00 | 0.00 | 0.00 | 60 | 1022.2 |
| 20260905080052 | 78 | 309 | 3.0 | 8.0 | 0.00 | 0.00 | 0.00 | 65 | 1022.1 |
| 20260905074545 | 77 | 263 | 0.0 | 4.0 | 0.00 | 0.00 | 0.00 | 69 | 1022.2 |
| 20260905073047 | 76 | 0 | 1.0 | 4.0 | 0.00 | 0.00 | 0.00 | 69 | 1022.2 |
| 20260905071553 | 76 | 274 | 4.0 | 7.0 | 0.00 | 0.00 | 0.00 | 69 | 1022.1 |
| 20260905070046 | 76 | 278 | 2.0 | 7.0 | 0.00 | 0.00 | 0.00 | 69 | 1021.9 |
| 20260905064549 | 76 | 304 | 2.0 | 7.0 | 0.00 | 0.00 | 0.00 | 69 | 1021.9 |
| 20260905063042 | 75 | 271 | 3.0 | 7.0 | 0.00 | 0.00 | 0.00 | 68 | 1021.7 |
| 20260905061603 | 75 | 275 | 3.0 | 7.0 | 0.00 | 0.00 | 0.00 | 67 | 1021.4 |
| 20260905060041 | 76 | 0 | 0.0 | 0.0 | 0.00 | 0.00 | 0.00 | 68 | 1021.1 |
| 20260905054541 | 75 | 0 | 0.0 | 0.0 | 0.00 | 0.00 | 0.00 | 67 | 1020.9 |
| 20260905053042 | 74 | 0 | 0.0 | 0.0 | 0.00 | 0.00 | 0.00 | 66 | 1020.9 |
| 20260905051545 | 73 | 0 | 0.0 | 3.0 | 0.00 | 0.00 | 0.00 | 66 | 1020.9 |
| 20260905050047 | 73 | 291 | 1.0 | 3.0 | 0.00 | 0.00 | 0.00 | 66 | 1021.0 |
| 20260905044549 | 73 | 0 | 0.0 | 0.0 | 0.00 | 0.00 | 0.00 | 66 | 1020.9 |
| 20260905043106 | 73 | 0 | 0.0 | 0.0 | 0.00 | 0.00 | 0.00 | 66 | 1021.0 |
| 20260905041548 | 73 | 0 | 0.0 | 0.0 | 0.00 | 0.00 | 0.00 | 67 | 1020.9 |
| 20260905040111 | 73 | 0 | 0.0 | 0.0 | 0.00 | 0.00 | 0.00 | 68 | 1020.9 |
| 20260905034543 | 73 | 0 | 0.0 | 0.0 | 0.00 | 0.00 | 0.00 | 67 | 1021.1 |
| 20260905033042 | 74 | 0 | 0.0 | 0.0 | 0.00 | 0.00 | 0.00 | 68 | 1021.0 |
| 20260905031539 | 74 | 0 | 0.0 | 0.0 | 0.00 | 0.00 | 0.00 | 68 | 1021.0 |
| 20260905030045 | 74 | 0 | 0.0 | 1.0 | 0.00 | 0.00 | 0.00 | 68 | 1021.0 |
| 20260905024543 | 74 | 293 | 0.0 | 4.0 | 0.00 | 0.00 | 0.00 | 67 | 1020.8 |
| 20260905023047 | 75 | 296 | 2.0 | 3.0 | 0.00 | 0.00 | 0.00 | 67 | 1020.8 |
| 20260905021547 | 75 | 298 | 2.0 | 4.0 | 0.00 | 0.00 | 0.00 | 67 | 1020.7 |
| 20260905020045 | 75 | 303 | 1.0 | 4.0 | 0.00 | 0.00 | 0.00 | 66 | 1020.6 |
| 20260905014546 | 76 | 0 | 0.0 | 0.0 | 0.00 | 0.00 | 0.00 | 66 | 1020.6 |
| 20260905013054 | 76 | 0 | 0.0 | 0.0 | 0.00 | 0.00 | 0.00 | 66 | 1020.7 |
| 20260905011543 | 76 | 0 | 0.0 | 0.0 | 0.00 | 0.00 | 0.00 | 66 | 1020.6 |